Stations météo

réclame
Mon MeteoGroup
Milano/Malpensa, Italie (16066): Température de l'air & dewpoint: 16.01.2018 11:00:00 - 22.01.2018 11:00:00 (CET)Milano/Malpensa, Italie (16066): Vitesse du vent: 16.01.2018 11:00:00 - 22.01.2018 11:00:00 (CET)Milano/Malpensa, Italie (16066): Direction du vent: 16.01.2018 11:00:00 - 22.01.2018 11:00:00 (CET)Milano/Malpensa, Italie (16066): reduced air pressure: 16.01.2018 11:00:00 - 22.01.2018 11:00:00 (CET)Milano/Malpensa, Italie (16066): visibility: 16.01.2018 11:00:00 - 22.01.2018 11:00:00 (CET)Milano/Malpensa, Italie (16066): Quantités de précipitations: 16.01.2018 11:00:00 - 22.01.2018 11:00:00 (CET)
Date & Time tt [°C] td [°C] ff [km/h] ff [knt] dd ppp [hPa] vv [km] rr [mm]
22.01.2018 11:00:00 8,0 -2,0 4 2 - - 10 -
22.01.2018 10:00:00 6,9 -1,2 2 1 N 1016,7 20 0,0
22.01.2018 09:00:00 -1,0 -5,0 2 1 - - 10 -
22.01.2018 08:00:00 -1,0 -5,0 9 5 N - 10 -
22.01.2018 07:00:00 -0,4 -5,0 8 4 N 1015,4 20 -
22.01.2018 06:00:00 0,0 -4,0 9 5 N - 10 -
22.01.2018 05:00:00 1,0 -4,0 11 6 NNE - 10 -
22.01.2018 04:00:00 1,9 -4,3 13 7 NNE 1015,2 15 0,0
22.01.2018 03:00:00 4,0 -4,0 11 6 NNE - 10 -
22.01.2018 02:00:00 6,0 -4,0 11 6 E - 10 -
22.01.2018 01:00:00 5,6 -3,4 11 6 ENE 1015,3 25 -
22.01.2018 00:00:00 6,0 -3,0 8 4 NE - 10 -
21.01.2018 23:00:00 7,0 -3,0 9 5 ENE - 10 -
21.01.2018 22:00:00 3,1 -3,1 11 6 NNE 1013,1 18 0,0
21.01.2018 21:00:00 8,0 -4,0 8 4 NW - 10 -
21.01.2018 20:00:00 10,0 -4,0 8 4 NNE - 10 -
21.01.2018 19:00:00 10,3 -4,6 22 12 NE 1010,1 30 -
21.01.2018 18:00:00 10,0 -4,0 31 17 NE - 10 -
21.01.2018 17:00:00 12,0 -4,0 21 11 NNE - 10 -
21.01.2018 16:00:00 13,8 -3,1 31 17 NNE 1008,1 30 0,0
21.01.2018 15:00:00 14,0 -3,0 34 18 N - 10 -
21.01.2018 14:00:00 15,0 -3,0 22 12 NNE - 10 -
21.01.2018 13:00:00 11,3 2,6 13 7 W 1007,4 35 -
21.01.2018 12:00:00 9,0 2,0 16 9 W - 10 -
21.01.2018 11:00:00 7,0 2,0 16 9 WNW - 10 -
21.01.2018 10:00:00 5,7 2,0 13 7 NW 1006,9 35 0,0
21.01.2018 09:00:00 3,0 1,0 13 7 N - 10 -
21.01.2018 08:00:00 2,0 1,0 11 6 N - 10 -
21.01.2018 07:00:00 1,5 0,7 9 5 NNW 1005,2 30 -
21.01.2018 06:00:00 -1,0 -1,0 8 4 N - 10 -
21.01.2018 05:00:00 1,0 0,0 5 3 N - 10 -
21.01.2018 04:00:00 0,6 -0,6 5 3 NNE 1003,9 20 0,0
21.01.2018 03:00:00 3,0 0,0 8 4 N - 10 -
21.01.2018 02:00:00 4,0 0,0 11 6 NNE - 10 -
21.01.2018 01:00:00 4,2 0,4 16 9 N 1004,3 25 -
21.01.2018 00:00:00 5,0 0,0 13 7 N - 10 -
20.01.2018 23:00:00 5,0 -1,0 9 5 NNE - 10 -
20.01.2018 22:00:00 4,1 0,0 8 4 N 1007,0 25 0,0
20.01.2018 21:00:00 5,0 0,0 4 2 - - 10 -
20.01.2018 20:00:00 5,0 0,0 8 4 ENE - 10 -
20.01.2018 19:00:00 5,4 0,7 2 1 N 1008,0 20 -
20.01.2018 18:00:00 6,0 1,0 4 2 - - 10 -
20.01.2018 17:00:00 7,0 1,0 2 1 - - 10 -
20.01.2018 16:00:00 8,0 0,0 4 2 N 1009,3 15 0,0
20.01.2018 15:00:00 8,0 0,0 9 5 SSE - 10 -
20.01.2018 14:00:00 9,0 -2,0 8 4 SSE - 10 -
20.01.2018 13:00:00 9,2 -5,3 5 3 S 1012,2 20 -
20.01.2018 12:00:00 8,0 -4,0 11 6 SE - 10 -
20.01.2018 11:00:00 7,0 -3,0 8 4 ESE - 10 -
20.01.2018 10:00:00 4,2 -2,4 4 2 ENE 1013,4 30 0,0
20.01.2018 09:00:00 0,0 -4,0 9 5 NNW - 10 -
20.01.2018 08:00:00 -2,0 -6,0 5 3 NW - 10 -
20.01.2018 07:00:00 -1,2 -5,1 2 1 N 1013,2 75 -
20.01.2018 06:00:00 -2,0 -5,0 8 4 N - 10 -
20.01.2018 05:00:00 -1,0 -3,0 4 2 - - 10 -
20.01.2018 04:00:00 -0,8 -4,2 4 2 N 1012,6 75 0,0
20.01.2018 03:00:00 4,0 -2,0 5 3 NNW - 10 -
20.01.2018 02:00:00 3,0 -1,0 8 4 N - 10 -
20.01.2018 01:00:00 1,0 -1,0 8 4 NNE 1012,2 15 -
20.01.2018 00:00:00 2,0 1,0 11 6 NE - 10 -
19.01.2018 23:00:00 4,0 1,0 4 2 - - 10 -
19.01.2018 22:00:00 3,9 0,6 8 4 ESE 1011,0 30 0,0
19.01.2018 21:00:00 2,0 -1,0 8 4 N - 10 -
19.01.2018 20:00:00 4,0 1,0 8 4 ESE - 10 -
19.01.2018 19:00:00 6,1 1,2 0 0 N 1009,9 55 -
19.01.2018 18:00:00 10,0 2,0 9 5 WSW - 10 -
19.01.2018 17:00:00 12,0 1,0 11 6 SW - 10 -
19.01.2018 16:00:00 13,4 1,1 11 6 WSW 1008,4 30 0,0
19.01.2018 15:00:00 12,0 1,0 5 3 SW - 10 -
19.01.2018 14:00:00 12,0 0,0 8 4 N - 10 -
19.01.2018 13:00:00 11,0 -0,2 4 2 N 1008,1 30 -
19.01.2018 12:00:00 10,0 1,0 5 3 W - 10 -
19.01.2018 11:00:00 7,0 1,0 5 3 - - 10 -
19.01.2018 10:00:00 5,2 0,7 11 6 N 1008,4 10 0,0
19.01.2018 09:00:00 0,0 -2,0 9 5 N - 10 -
19.01.2018 08:00:00 0,0 -2,0 11 6 N - 10 -
19.01.2018 07:00:00 -0,4 -2,1 13 7 N 1007,5 10 -
19.01.2018 06:00:00 -1,0 -2,0 13 7 N - 10 -
19.01.2018 05:00:00 1,0 0,0 8 4 NNW - 10 -
19.01.2018 04:00:00 -2,0 -4,0 9 5 N 1008,5 10 0,0
19.01.2018 03:00:00 -1,0 -2,0 9 5 N - 10 -
19.01.2018 02:00:00 0,0 -1,0 9 5 NNW - 10 -
19.01.2018 01:00:00 -1,1 -2,9 13 7 N 1010,0 10 -
19.01.2018 00:00:00 -1,0 -4,0 9 5 N - 10 -
18.01.2018 23:00:00 0,0 -3,0 13 7 N - 10 -
18.01.2018 22:00:00 0,9 -2,9 9 5 NNE 1011,1 10 0,0
18.01.2018 21:00:00 1,0 -4,0 9 5 N - 10 -
18.01.2018 20:00:00 0,0 -4,0 8 4 N - 10 -
18.01.2018 19:00:00 3,3 -4,8 4 2 - 1011,9 10 -
18.01.2018 18:00:00 6,0 -7,0 2 1 - - 10 -
18.01.2018 17:00:00 10,0 -7,0 8 4 NW - 10 -
18.01.2018 16:00:00 10,9 -7,0 5 3 NW 1012,0 10 0,0
18.01.2018 15:00:00 11,0 -6,0 11 6 NW - 10 -
18.01.2018 14:00:00 11,0 -6,0 5 3 WNW - 10 -
18.01.2018 13:00:00 10,5 -8,9 8 4 N 1014,2 10 -
18.01.2018 12:00:00 9,0 -4,0 13 7 N - 10 -
18.01.2018 11:00:00 7,0 -2,0 9 5 N - 10 -
18.01.2018 10:00:00 4,5 -0,9 13 7 N 1015,8 20 0,0
18.01.2018 09:00:00 -2,0 -4,0 9 5 N - 10 -
18.01.2018 08:00:00 -4,0 -6,0 8 4 N - 10 -
18.01.2018 07:00:00 -3,0 -4,5 15 8 N 1015,0 10 -
18.01.2018 06:00:00 -5,0 -7,0 4 2 - - 10 -
18.01.2018 05:00:00 -2,0 -5,0 4 2 - - 10 -
18.01.2018 04:00:00 -3,8 -5,5 9 5 NNE 1015,4 10 0,0
18.01.2018 03:00:00 -4,0 -7,0 5 3 N - 10 -
18.01.2018 02:00:00 -1,0 -4,0 4 2 - - 10 -
18.01.2018 01:00:00 0,0 -3,6 9 5 SW 1016,1 10 -
18.01.2018 00:00:00 -1,0 -4,0 16 9 N - 10 -
17.01.2018 23:00:00 -3,0 -5,0 9 5 NNE - 10 -
17.01.2018 22:00:00 -2,7 -4,8 4 2 - 1015,1 10 0,0
17.01.2018 21:00:00 1,0 -3,0 5 3 WNW - 10 -
17.01.2018 20:00:00 -1,0 -4,0 8 4 N - 10 -
17.01.2018 19:00:00 1,6 -3,9 4 2 - 1012,4 10 -
17.01.2018 18:00:00 4,0 -3,0 11 6 NNW - 10 -
17.01.2018 17:00:00 7,0 -4,0 9 5 NW - 10 -
17.01.2018 16:00:00 6,3 -3,5 15 8 N 1010,0 10 0,0
17.01.2018 15:00:00 - - - - - - - -
17.01.2018 14:00:00 10,0 10,0 8 4 - - 10 -
17.01.2018 13:00:00 8,1 8,1 2 1 - 1005,5 10 -
17.01.2018 12:00:00 7,0 7,0 4 2 - - 10 -
17.01.2018 11:00:00 4,0 4,0 8 4 ESE - 10 -
17.01.2018 10:00:00 2,5 2,5 13 7 N 1003,4 4,0 0,0
17.01.2018 09:00:00 1,0 1,0 5 3 ESE - 3,0 -
17.01.2018 08:00:00 1,0 1,0 11 6 SW - 0,1 -
17.01.2018 07:00:00 0,0 0,0 9 5 WSW 1000,7 0,1 -
17.01.2018 06:00:00 1,0 1,0 5 3 SW - 0,1 -
17.01.2018 05:00:00 1,0 1,0 8 4 NE - 0,1 -
17.01.2018 04:00:00 0,9 0,9 8 4 ENE 1000,1 0,1 0,0
17.01.2018 03:00:00 1,0 1,0 5 3 NNE - 0,1 -
17.01.2018 02:00:00 -3,0 -4,0 5 3 ESE - 4,0 -
17.01.2018 01:00:00 -2,5 -2,8 4 2 - 1000,8 6 -
17.01.2018 00:00:00 -2,0 -3,0 5 3 NNE - 7 -
16.01.2018 23:00:00 0,0 0,0 2 1 - - 7 -
16.01.2018 22:00:00 -0,2 -0,9 4 2 - 1003,2 8 0,0
16.01.2018 21:00:00 1,0 0,0 2 1 - - 8 -
16.01.2018 20:00:00 2,0 0,0 2 1 - - 8 -
16.01.2018 19:00:00 4,0 0,9 9 5 WSW 1004,3 10 -
16.01.2018 18:00:00 5,0 1,0 11 6 SW - 10 -
16.01.2018 17:00:00 7,0 1,0 11 6 SW - 10 -
16.01.2018 16:00:00 8,0 1,3 5 3 SSW 1006,1 10 0,0
16.01.2018 15:00:00 8,0 1,0 5 3 - - 10 -
16.01.2018 14:00:00 8,0 2,0 4 2 - - 10 -
16.01.2018 13:00:00 6,9 1,9 8 4 WNW 1009,0 8 -
16.01.2018 12:00:00 5,0 3,0 9 5 SW - 7 -
16.01.2018 11:00:00 5,0 3,0 8 4 WSW - 5 -

tt = Température de l'air
td = dewpoint
ff = Vitesse du vent
dd = Direction du vent
ppp = reduced air pressure
vv = visibility
rr = Quantités de précipitations

stations d'obs. à proximité